| time (UTC) | temp F | wind direction | speed MPH | gust MPH | rain 1hr in | rain 24hr in | rain mn in | humidity % | barometer mb |
| 20260905012519 | 80 | 158 | 3.0 | 5.0 | 0.00 | 0.00 | 0.00 | 67 | 1012.3 |
| 20260905011515 | 81 | 180 | 4.0 | 6.0 | 0.00 | 0.00 | 0.00 | 65 | 1012.4 |
| 20260905010515 | 82 | 180 | 4.0 | 8.0 | 0.00 | 0.00 | 0.00 | 65 | 1012.5 |
| 20260905005515 | 82 | 158 | 3.0 | 5.0 | 0.00 | 0.00 | 0.00 | 64 | 1012.6 |
| 20260905004515 | 82 | 113 | 2.0 | 3.0 | 0.00 | 0.00 | 0.00 | 65 | 1012.6 |
| 20260905003515 | 83 | 0.0 | 0.0 | 0.00 | 0.00 | 0.00 | 64 | 1012.7 | |
| 20260905002515 | 83 | 0.0 | 3.0 | 0.00 | 0.00 | 0.00 | 63 | 1012.7 | |
| 20260905001515 | 83 | 158 | 2.0 | 4.0 | 0.00 | 0.00 | 0.00 | 64 | 1012.6 |
| 20260905000515 | 83 | 158 | 5.0 | 9.0 | 0.00 | 0.00 | 0.00 | 63 | 1012.5 |
| 20260904235515 | 83 | 158 | 6.0 | 9.0 | 0.00 | 0.00 | 0.00 | 63 | 1012.4 |
| 20260904234515 | 83 | 180 | 7.0 | 14.0 | 0.00 | 0.00 | 0.00 | 61 | 1012.6 |
| 20260904233515 | 84 | 203 | 8.0 | 14.0 | 0.00 | 0.00 | 0.00 | 57 | 1012.7 |
| 20260904232515 | 85 | 225 | 4.0 | 7.0 | 0.00 | 0.00 | 0.00 | 60 | 1012.7 |
| 20260904231515 | 85 | 180 | 4.0 | 7.0 | 0.00 | 0.00 | 0.00 | 59 | 1012.4 |
| 20260904230515 | 85 | 158 | 7.0 | 12.0 | 0.00 | 0.00 | 0.00 | 61 | 1012.1 |
| 20260904225515 | 85 | 180 | 9.0 | 16.0 | 0.00 | 0.00 | 0.00 | 61 | 1012.3 |
| 20260904224515 | 85 | 158 | 11.0 | 17.0 | 0.00 | 0.00 | 0.00 | 60 | 1011.9 |
| 20260904223515 | 86 | 158 | 11.0 | 18.0 | 0.00 | 0.00 | 0.00 | 59 | 1011.6 |
| 20260904222515 | 85 | 135 | 12.0 | 18.0 | 0.00 | 0.00 | 0.00 | 57 | 1010.9 |
| 20260904221515 | 85 | 135 | 13.0 | 20.0 | 0.00 | 0.00 | 0.00 | 58 | 1010.9 |
| 20260904220515 | 86 | 135 | 7.0 | 11.0 | 0.00 | 0.00 | 0.00 | 54 | 1010.8 |
| 20260904215515 | 86 | 90 | 4.0 | 8.0 | 0.00 | 0.00 | 0.00 | 55 | 1011.0 |
| 20260904214515 | 87 | 90 | 7.0 | 9.0 | 0.00 | 0.00 | 0.00 | 52 | 1011.0 |
| 20260904213515 | 86 | 90 | 9.0 | 18.0 | 0.00 | 0.00 | 0.00 | 57 | 1011.1 |
| 20260904212515 | 86 | 90 | 7.0 | 13.0 | 0.00 | 0.00 | 0.00 | 52 | 1011.2 |
| 20260904211515 | 85 | 158 | 11.0 | 16.0 | 0.00 | 0.00 | 0.00 | 56 | 1011.0 |
| 20260904210515 | 85 | 135 | 18.0 | 28.0 | 0.00 | 0.00 | 0.00 | 55 | 1010.9 |
| 20260904205515 | 86 | 135 | 23.0 | 32.0 | 0.00 | 0.00 | 0.00 | 52 | 1010.8 |
| 20260904204515 | 92 | 135 | 22.0 | 33.0 | 0.00 | 0.00 | 0.00 | 47 | 1011.5 |
| 20260904203515 | 101 | 113 | 3.0 | 10.0 | 0.00 | 0.00 | 0.00 | 36 | 1011.7 |
| 20260904202516 | 98 | 180 | 3.0 | 6.0 | 0.00 | 0.00 | 0.00 | 38 | 1011.5 |
| 20260904201515 | 98 | 68 | 3.0 | 8.0 | 0.00 | 0.00 | 0.00 | 39 | 1011.8 |
| 20260904200515 | 98 | 90 | 1.0 | 6.0 | 0.00 | 0.00 | 0.00 | 38 | 1012.0 |
| 20260904195515 | 101 | 180 | 5.0 | 10.0 | 0.00 | 0.00 | 0.00 | 37 | 1012.3 |
| 20260904194515 | 100 | 203 | 4.0 | 10.0 | 0.00 | 0.00 | 0.00 | 38 | 1012.6 |
| 20260904193515 | 100 | 135 | 5.0 | 10.0 | 0.00 | 0.00 | 0.00 | 38 | 1012.8 |
| 20260904192516 | 100 | 270 | 3.0 | 8.0 | 0.00 | 0.00 | 0.00 | 37 | 1012.9 |
| 20260904191515 | 100 | 248 | 5.0 | 11.0 | 0.00 | 0.00 | 0.00 | 39 | 1013.2 |
| 20260904190515 | 98 | 135 | 2.0 | 5.0 | 0.00 | 0.00 | 0.00 | 41 | 1013.1 |
| 20260904185515 | 98 | 248 | 5.0 | 9.0 | 0.00 | 0.00 | 0.00 | 38 | 1013.4 |
| 20260904184515 | 98 | 135 | 5.0 | 10.0 | 0.00 | 0.00 | 0.00 | 41 | 1013.6 |
| 20260904183515 | 97 | 158 | 5.0 | 11.0 | 0.00 | 0.00 | 0.00 | 44 | 1013.6 |
| 20260904182515 | 97 | 203 | 4.0 | 9.0 | 0.00 | 0.00 | 0.00 | 43 | 1013.8 |
| 20260904181515 | 96 | 270 | 3.0 | 7.0 | 0.00 | 0.00 | 0.00 | 43 | 1014.0 |
| 20260904180515 | 97 | 203 | 4.0 | 6.0 | 0.00 | 0.00 | 0.00 | 44 | 1014.1 |
| 20260904175515 | 96 | 203 | 6.0 | 14.0 | 0.00 | 0.00 | 0.00 | 44 | 1014.2 |
| 20260904174515 | 94 | 203 | 5.0 | 11.0 | 0.00 | 0.00 | 0.00 | 46 | 1014.3 |
| 20260904173515 | 94 | 248 | 4.0 | 7.0 | 0.00 | 0.00 | 0.00 | 47 | 1014.4 |
| 20260904172515 | 94 | 248 | 6.0 | 12.0 | 0.00 | 0.00 | 0.00 | 47 | 1014.6 |
| 20260904171515 | 94 | 225 | 3.0 | 7.0 | 0.00 | 0.00 | 0.00 | 47 | 1014.7 |
| 20260904170516 | 93 | 180 | 6.0 | 12.0 | 0.00 | 0.00 | 0.00 | 49 | 1014.7 |
| 20260904165515 | 93 | 158 | 5.0 | 9.0 | 0.00 | 0.00 | 0.00 | 51 | 1014.8 |
| 20260904164515 | 92 | 180 | 4.0 | 7.0 | 0.00 | 0.00 | 0.00 | 51 | 1015.0 |
| 20260904163515 | 91 | 180 | 6.0 | 15.0 | 0.00 | 0.00 | 0.00 | 53 | 1014.9 |
| 20260904162515 | 90 | 158 | 7.0 | 12.0 | 0.00 | 0.00 | 0.00 | 54 | 1015.0 |
| 20260904161515 | 90 | 180 | 6.0 | 10.0 | 0.00 | 0.00 | 0.00 | 55 | 1015.1 |
| 20260904160515 | 89 | 180 | 4.0 | 7.0 | 0.00 | 0.00 | 0.00 | 55 | 1015.0 |
| 20260904155515 | 88 | 135 | 4.0 | 10.0 | 0.00 | 0.00 | 0.00 | 58 | 1014.8 |
| 20260904154515 | 88 | 135 | 3.0 | 6.0 | 0.00 | 0.00 | 0.00 | 59 | 1015.0 |
| 20260904153515 | 87 | 158 | 5.0 | 9.0 | 0.00 | 0.00 | 0.00 | 60 | 1014.8 |
| 20260904152515 | 86 | 135 | 3.0 | 7.0 | 0.00 | 0.00 | 0.00 | 63 | 1014.8 |
| 20260904151515 | 85 | 158 | 5.0 | 9.0 | 0.00 | 0.00 | 0.00 | 64 | 1014.6 |
| 20260904150515 | 85 | 203 | 4.0 | 8.0 | 0.00 | 0.00 | 0.00 | 66 | 1014.7 |
| 20260904145515 | 83 | 203 | 3.0 | 8.0 | 0.00 | 0.00 | 0.00 | 68 | 1014.6 |
| 20260904144515 | 82 | 180 | 5.0 | 8.0 | 0.00 | 0.00 | 0.00 | 69 | 1014.7 |
| 20260904143515 | 82 | 180 | 5.0 | 8.0 | 0.00 | 0.00 | 0.00 | 70 | 1014.7 |
| 20260904142515 | 81 | 180 | 5.0 | 7.0 | 0.00 | 0.00 | 0.00 | 73 | 1014.6 |
| 20260904141515 | 81 | 158 | 6.0 | 9.0 | 0.00 | 0.00 | 0.00 | 73 | 1014.6 |
| 20260904140515 | 80 | 203 | 6.0 | 9.0 | 0.00 | 0.00 | 0.00 | 75 | 1014.3 |
| 20260904135515 | 79 | 203 | 5.0 | 10.0 | 0.00 | 0.00 | 0.00 | 76 | 1014.2 |
| 20260904134515 | 79 | 203 | 4.0 | 8.0 | 0.00 | 0.00 | 0.00 | 77 | 1014.2 |
| 20260904133515 | 78 | 203 | 5.0 | 10.0 | 0.00 | 0.00 | 0.00 | 77 | 1014.1 |
| 20260904132515 | 78 | 203 | 4.0 | 6.0 | 0.00 | 0.00 | 0.00 | 78 | 1014.1 |
| 20260904131515 | 78 | 203 | 3.0 | 5.0 | 0.00 | 0.00 | 0.00 | 78 | 1013.9 |
| 20260904130518 | 77 | 203 | 3.0 | 6.0 | 0.00 | 0.00 | 0.00 | 78 | 1013.7 |
| 20260904125519 | 77 | 203 | 2.0 | 4.0 | 0.00 | 0.00 | 0.00 | 78 | 1013.6 |
| 20260904124519 | 76 | 203 | 2.0 | 5.0 | 0.00 | 0.00 | 0.00 | 79 | 1013.4 |
| 20260904123516 | 77 | 203 | 4.0 | 7.0 | 0.00 | 0.00 | 0.00 | 78 | 1013.5 |
| 20260904122515 | 77 | 203 | 3.0 | 5.0 | 0.00 | 0.00 | 0.00 | 77 | 1013.4 |
| 20260904121515 | 77 | 203 | 3.0 | 5.0 | 0.00 | 0.00 | 0.00 | 77 | 1013.4 |
| 20260904120515 | 77 | 203 | 3.0 | 5.0 | 0.00 | 0.00 | 0.00 | 76 | 1013.4 |
| 20260904115515 | 77 | 203 | 3.0 | 8.0 | 0.00 | 0.00 | 0.00 | 75 | 1013.2 |
| 20260904114515 | 78 | 203 | 4.0 | 7.0 | 0.00 | 0.00 | 0.00 | 75 | 1013.2 |
| 20260904113515 | 78 | 203 | 3.0 | 7.0 | 0.00 | 0.00 | 0.00 | 74 | 1013.3 |
| 20260904112515 | 78 | 203 | 6.0 | 9.0 | 0.00 | 0.00 | 0.00 | 73 | 1013.2 |
| 20260904111515 | 78 | 203 | 4.0 | 7.0 | 0.00 | 0.00 | 0.00 | 72 | 1013.3 |
| 20260904110515 | 78 | 180 | 4.0 | 7.0 | 0.00 | 0.00 | 0.00 | 71 | 1013.2 |
| 20260904105515 | 79 | 180 | 4.0 | 9.0 | 0.00 | 0.00 | 0.00 | 70 | 1013.3 |
| 20260904104515 | 79 | 203 | 4.0 | 8.0 | 0.00 | 0.00 | 0.00 | 68 | 1013.4 |
| 20260904103515 | 79 | 203 | 3.0 | 6.0 | 0.00 | 0.00 | 0.00 | 68 | 1013.2 |
| 20260904102515 | 80 | 203 | 5.0 | 10.0 | 0.00 | 0.00 | 0.00 | 67 | 1013.2 |
| 20260904101515 | 80 | 180 | 5.0 | 10.0 | 0.00 | 0.00 | 0.00 | 66 | 1013.0 |
| 20260904100515 | 80 | 203 | 6.0 | 11.0 | 0.00 | 0.00 | 0.00 | 65 | 1012.9 |
| 20260904095516 | 80 | 180 | 5.0 | 10.0 | 0.00 | 0.00 | 0.00 | 64 | 1012.8 |
| 20260904094515 | 81 | 180 | 6.0 | 10.0 | 0.00 | 0.00 | 0.00 | 63 | 1013.0 |
| 20260904093515 | 81 | 180 | 4.0 | 8.0 | 0.00 | 0.00 | 0.00 | 62 | 1012.9 |
| 20260904092515 | 81 | 203 | 5.0 | 9.0 | 0.00 | 0.00 | 0.00 | 62 | 1013.0 |
| 20260904091515 | 81 | 180 | 6.0 | 11.0 | 0.00 | 0.00 | 0.00 | 62 | 1013.0 |
| 20260904090515 | 82 | 180 | 8.0 | 14.0 | 0.00 | 0.00 | 0.00 | 61 | 1012.9 |
| 20260904085515 | 82 | 180 | 6.0 | 12.0 | 0.00 | 0.00 | 0.00 | 61 | 1012.8 |
| 20260904084515 | 82 | 180 | 6.0 | 13.0 | 0.00 | 0.00 | 0.00 | 61 | 1012.7 |
| 20260904083515 | 82 | 180 | 5.0 | 12.0 | 0.00 | 0.00 | 0.00 | 60 | 1012.5 |
| 20260904082515 | 82 | 180 | 7.0 | 15.0 | 0.00 | 0.00 | 0.00 | 60 | 1012.4 |
| 20260904081515 | 82 | 180 | 5.0 | 9.0 | 0.00 | 0.00 | 0.00 | 59 | 1012.5 |
| 20260904080515 | 83 | 180 | 5.0 | 9.0 | 0.00 | 0.00 | 0.00 | 59 | 1012.6 |
| 20260904075515 | 83 | 180 | 6.0 | 12.0 | 0.00 | 0.00 | 0.00 | 58 | 1012.5 |
| 20260904074515 | 83 | 180 | 8.0 | 15.0 | 0.00 | 0.00 | 0.00 | 57 | 1012.3 |
| 20260904073515 | 84 | 203 | 9.0 | 14.0 | 0.00 | 0.00 | 0.00 | 57 | 1012.4 |
| 20260904072515 | 84 | 203 | 9.0 | 17.0 | 0.00 | 0.00 | 0.00 | 56 | 1012.7 |
| 20260904071515 | 84 | 180 | 8.0 | 14.0 | 0.00 | 0.00 | 0.00 | 55 | 1012.8 |
| 20260904070515 | 84 | 180 | 8.0 | 13.0 | 0.00 | 0.00 | 0.00 | 54 | 1012.8 |
| 20260904065515 | 84 | 180 | 6.0 | 13.0 | 0.00 | 0.00 | 0.00 | 53 | 1012.9 |
| 20260904064515 | 84 | 180 | 6.0 | 11.0 | 0.00 | 0.00 | 0.00 | 53 | 1012.9 |
| 20260904063515 | 84 | 180 | 6.0 | 13.0 | 0.00 | 0.00 | 0.00 | 52 | 1012.9 |
| 20260904062515 | 85 | 180 | 6.0 | 10.0 | 0.00 | 0.00 | 0.00 | 51 | 1013.0 |
| 20260904061515 | 84 | 180 | 3.0 | 6.0 | 0.00 | 0.00 | 0.00 | 51 | 1012.8 |
| 20260904060516 | 85 | 158 | 5.0 | 9.0 | 0.00 | 0.00 | 0.00 | 50 | 1012.8 |
| 20260904055515 | 86 | 158 | 5.0 | 9.0 | 0.00 | 0.00 | 0.00 | 49 | 1012.9 |
| 20260904054515 | 86 | 158 | 8.0 | 12.0 | 0.00 | 0.00 | 0.00 | 48 | 1012.6 |
| 20260904053515 | 87 | 158 | 8.0 | 14.0 | 0.00 | 0.00 | 0.00 | 47 | 1012.7 |
| 20260904052515 | 87 | 158 | 8.0 | 17.0 | 0.00 | 0.00 | 0.00 | 47 | 1012.6 |
| 20260904051515 | 87 | 158 | 8.0 | 13.0 | 0.00 | 0.00 | 0.00 | 47 | 1012.4 |
| 20260904050516 | 87 | 180 | 8.0 | 15.0 | 0.00 | 0.00 | 0.00 | 46 | 1012.3 |
| 20260904045515 | 88 | 180 | 8.0 | 14.0 | 0.00 | 0.00 | 0.00 | 46 | 1012.3 |
| 20260904044515 | 88 | 158 | 8.0 | 17.0 | 0.00 | 0.00 | 0.00 | 45 | 1012.2 |
| 20260904043516 | 88 | 158 | 7.0 | 11.0 | 0.00 | 0.00 | 0.00 | 45 | 1012.2 |
| 20260904042516 | 88 | 158 | 7.0 | 10.0 | 0.00 | 0.00 | 0.00 | 45 | 1012.2 |
| 20260904041516 | 88 | 158 | 7.0 | 11.0 | 0.00 | 0.00 | 0.00 | 45 | 1012.1 |
| 20260904040515 | 89 | 158 | 8.0 | 11.0 | 0.00 | 0.00 | 0.00 | 45 | 1012.1 |
| 20260904035515 | 89 | 158 | 6.0 | 13.0 | 0.00 | 0.00 | 0.00 | 45 | 1012.0 |
| 20260904034516 | 89 | 180 | 7.0 | 12.0 | 0.00 | 0.00 | 0.00 | 44 | 1011.9 |
| 20260904033515 | 90 | 180 | 7.0 | 11.0 | 0.00 | 0.00 | 0.00 | 44 | 1011.8 |
| 20260904032515 | 90 | 158 | 7.0 | 11.0 | 0.00 | 0.00 | 0.00 | 44 | 1011.8 |
| 20260904031516 | 90 | 158 | 9.0 | 14.0 | 0.00 | 0.00 | 0.00 | 43 | 1011.6 |
| 20260904030515 | 90 | 158 | 8.0 | 13.0 | 0.00 | 0.00 | 0.00 | 43 | 1011.5 |
| 20260904025515 | 90 | 158 | 7.0 | 11.0 | 0.00 | 0.00 | 0.00 | 43 | 1011.3 |
| 20260904024515 | 90 | 135 | 6.0 | 10.0 | 0.00 | 0.00 | 0.00 | 43 | 1010.8 |
| 20260904023516 | 91 | 135 | 5.0 | 8.0 | 0.00 | 0.00 | 0.00 | 42 | 1010.8 |
| 20260904022515 | 92 | 135 | 8.0 | 11.0 | 0.00 | 0.00 | 0.00 | 42 | 1010.6 |
| 20260904021515 | 93 | 158 | 12.0 | 18.0 | 0.00 | 0.00 | 0.00 | 40 | 1010.5 |
| 20260904020515 | 92 | 158 | 11.0 | 16.0 | 0.00 | 0.00 | 0.00 | 41 | 1010.3 |
| 20260904015515 | 93 | 135 | 14.0 | 21.0 | 0.00 | 0.00 | 0.00 | 41 | 1010.2 |
| 20260904014515 | 93 | 135 | 15.0 | 23.0 | 0.00 | 0.00 | 0.00 | 41 | 1010.1 |
| 20260904013515 | 94 | 135 | 14.0 | 21.0 | 0.00 | 0.00 | 0.00 | 39 | 1009.9 |